• MPC Preparation (Info)

  • MPEC 2015-O05 : 2015 NS13

    The following Minor Planet Electronic Circular may be linked-to from your own Web pages, but must not otherwise be redistributed electronically.

    A form allowing access to any MPEC is at the bottom of this page.


    Read MPEC 2015-O04 Read MPEC 2015-O06


    M.P.E.C. 2015-O05                                Issued 2015 July 16, 14:05 UT
    
         The Minor Planet Electronic Circulars contain information on unusual
             minor planets and routine data on comets.  They are published
       on behalf of Commission 20 of the International Astronomical Union by the
              Minor Planet Center, Smithsonian Astrophysical Observatory,
                              Cambridge, MA 02138, U.S.A.
    
                 Prepared using the Tamkin Foundation Computer Network
    
                                  MPC@CFA.HARVARD.EDU
                URL https://www.minorplanetcenter.net/    ISSN 1523-6714
    
                                       2015 NS13
    
    Observations:
         K15N13S* C2015 07 12.50292 22 34 48.231-10 01 28.02         20.6 wLEO005F51
         K15N13S  C2015 07 12.51406 22 34 48.458-10 01 11.59         20.6 wLEO005F51
         K15N13S  C2015 07 12.52522 22 34 48.679-10 00 54.93         20.7 wLEO005F51
         K15N13S  C2015 07 12.53637 22 34 48.898-10 00 38.38         20.7 wLEO005F51
         K15N13S KC2015 07 13.32317022 35 08.88 -09 40 54.7          21.1 VuEO005H21
         K15N13S KC2015 07 13.33298622 35 09.04 -09 40 40.4          20.8 VuEO005H21
         K15N13S KC2015 07 13.34379522 35 09.28 -09 40 23.1          20.7 VuEO005H21
         K15N13S  C2015 07 14.38471 22 35 33.29 -09 13 29.9          20.4 rREO005G45
         K15N13S  C2015 07 14.39003 22 35 33.35 -09 13 21.0          20.7 rREO005G45
         K15N13S  C2015 07 14.39535 22 35 33.43 -09 13 12.7          20.6 rREO005G45
         K15N13S  C2015 07 14.40071 22 35 33.51 -09 13 04.6          20.7 rREO005G45
         K15N13S  C2015 07 14.40614 22 35 33.60 -09 12 55.9          20.4 rREO005G45
         K15N13S  C2015 07 14.40813 22 35 33.65 -09 12 52.5          20.6 rREO005G45
         K15N13S  C2015 07 14.41345 22 35 33.70 -09 12 43.5          20.2 rREO005G45
         K15N13S  C2015 07 14.54919 22 35 36.660-09 09 06.95         20.6 wLEO005F51
         K15N13S  C2015 07 14.56063 22 35 36.836-09 08 49.19         20.6 wLEO005F51
         K15N13S  C2015 07 14.57199 22 35 36.999-09 08 31.01         20.5 wLEO005F51
         K15N13S  C2015 07 14.58338 22 35 37.167-09 08 13.01         20.6 wLEO005F51
         K15N13S KC2015 07 15.29386022 35 52.20 -08 49 21.1          20.3 VuEO005H21
         K15N13S KC2015 07 15.30066722 35 52.29 -08 49 09.9          20.2 VuEO005H21
         K15N13S KC2015 07 15.30761022 35 52.41 -08 48 58.7          20.4 VuEO005H21
         K15N13S KC2015 07 15.40970 22 35 54.20 -08 46 11.7          20.1 RoEO005291
         K15N13S KC2015 07 15.41226 22 35 54.23 -08 46 08.0                oEO005291
         K15N13S KC2015 07 15.41481 22 35 54.26 -08 46 03.7                oEO005291
         K15N13S KC2015 07 16.33675 22 36 11.34 -08 20 47.4          20.3 RoEO005291
         K15N13S KC2015 07 16.33930 22 36 11.35 -08 20 42.5          20.0 RoEO005291
         K15N13S KC2015 07 16.34183 22 36 11.37 -08 20 39.5          20.0 RoEO005291
    
    Observer details:
    291 LPL/Spacewatch II.  Observer A. F. Tubbiolo.  1.8-m f/2.7 reflector + CCD.
    F51 Pan-STARRS 1, Haleakala.  Observers B. Gibson, T. Goggia, N. Primak,
        A. Schultz, M. Willman.  Measurers K. Chambers, S. Chastel, L. Denneau,
        H. Flewelling, M. Huber, E. Lilly, E. Magnier, R. Wainscoat, C. Waters,
        R. Weryk, P. Veres.  1.8-m Ritchey-Chretien + CCD.
    G45 Space Surveillance Telescope, Atom Site.  Observers L. Banks, M. Blythe,
        R. Brungard, P. Festler, T. McVey, J. Paige, W. Robertson, G. Spitz.
        Measurers C. Byun, M. Cornell, M. Goldberg, A. Klein, J. Ruprecht,
        G. Ushomirsky, J. Varey, H. Viggh, D. Woods.  3.5-m f/1 reflector + CCD.
    H21 Astronomical Research Observatory, Westfield.  Observer R. Holmes.
        Measurers S. Foglia, L. Buzzi, T. Linder, R. Holmes.  0.76-m f/3.0
        astrograph + CCD.
    
    Orbital elements:
    2015 NS13                                                Earth MOID = 0.0510 AU
    Epoch 2015 June 27.0 TT = JDT 2457200.5                 MPC
    M 288.41073              (2000.0)            P               Q
    n   0.54885299     Peri.  110.34343     +0.51359844     -0.83242267
    a   1.4774020      Node   307.00970     +0.65746674     +0.53760718
    e   0.4165522      Incl.   15.10288     +0.55132035     +0.13435411
    P   1.80           H   19.8           G   0.15           U   8
    Residuals in seconds of arc
    150712 F51  0.0   0.0     150714 G45  0.0   0.0     150715 H21  0.1-  0.2-
    150712 F51  0.0   0.1-    150714 G45  0.1-  0.3-    150715 H21  0.2-  0.0
    150712 F51  0.0   0.0     150714 G45  0.1-  0.1-    150715 H21  0.1+  0.1+
    150712 F51  0.1-  0.0     150714 G45  0.2+  0.1+    150715 291  0.0   0.3+
    150713 H21  0.5+  0.5+    150714 G45  0.3-  0.8+    150715 291  0.0   0.1-
    150713 H21  0.1+  0.2-    150714 F51  0.1-  0.1+    150715 291  0.1-  0.0
    150713 H21  0.6+  0.7+    150714 F51  0.0   0.2-    150716 291  0.3+  0.0
    150714 G45  0.4+  0.5-    150714 F51  0.0   0.0     150716 291  0.0   0.6+
    150714 G45  0.0   0.1+    150714 F51  0.0   0.1-    150716 291  0.1-  0.6-
    
    Ephemeris:
    2015 NS13                a,e,i = 1.48, 0.42, 15                  q = 0.8620
    Date    TT    R. A. (2000) Decl.     Delta      r     Elong.  Phase     V
    2015 06 16    22 12 42.3 -18 09 49   0.8677  1.5954   115.6    35.1    21.9
    ...
    2015 07 01    22 27 30.2 -14 08 17   0.6777  1.5120   125.2    33.3    21.2
    ...
    2015 07 09    22 33 02.2 -11 24 20   0.5838  1.4652   130.6    31.8    20.8
    ...
    2015 07 15    22 35 45.9 -08 57 03   0.5175  1.4292   134.8    30.3    20.5
    2015 07 16    22 36 04.9 -08 29 56   0.5068  1.4231   135.5    30.0    20.4
    2015 07 17    22 36 21.3 -08 02 01   0.4962  1.4170   136.2    29.7    20.3
    ...
    2015 07 23    22 37 01.2 -04 54 33   0.4352  1.3799   140.5    27.9    19.9
    ...
    2015 07 31    22 34 50.4 +00 23 44   0.3612  1.3295   145.8    25.4    19.4
    ...
    2015 08 15    22 16 36.6 +15 52 15   0.2505  1.2330   148.2    25.6    18.4
    
    A. U. Tomatic                (C) Copyright 2015 MPC           M.P.E.C. 2015-O05
    

    Read MPEC 2015-O04 Read MPEC 2015-O06


    MPEC number:

    Enter an MPEC number in one of the following forms:

    • 1997-B01 (the full form)
    • J97B01 (the packed version of the full form)
    • B01 (the abbreviated form)